User: anonymous   Login
Location: Unspecified
(0.0000°N, 0.0000°E)
Time: 16:53:01
(UTC+01:00)
Language:

Centaur D-1AR AC-41 - Orbit

View from above orbital plane
View from above orbital plane
View from above satellite
View from above satellite

Ground track
Ground track

The orbit data is extracted from the following two-line orbital elements,

1 10976U 78068B   18050.43302566 -.00000164 +00000-0 -18080-4 0  9999
2 10976 021.5040 116.3599 7164201 051.4385 005.9151 02.22309606318584
Epoch (UTC): 19 February 2018 10:23:33
Eccentricity: 0.7164201
inclination: 21.5040°
perigee height: 654 km
apogee height: 36186 km
right ascension of ascending node: 116.3599°
argument of perigee: 51.4385°
revolutions per day: 2.22309606
mean anomaly at epoch: 5.9151°
orbit number at epoch: 31858

The dashed part of the orbit path shows where the satellite is in the earth's shadow,  

DLR